Terminal Aerodrome Forecast
Issued by NWS

Home | Current Version | Previous Version | Text Only | Print | Product List | Glossary On
Versions: 1 2 3 4 5 6 7 8 9 10 11 12 13 14 15 16 17 18 19 20 21 22 23 24 25 26 27 28
000
FTUS46 KSEW 230300 AAA
TAFSEA
TAF AMD
KSEA 230300Z 2303/2406 07003KT P6SM SCT120 BKN180
     FM230900 19005KT P6SM BKN070 OVC120
     FM231500 17008KT P6SM -RA SCT025 OVC040
     FM231800 16010KT P6SM -RA OVC025
     FM232100 18010KT 4SM RA BR OVC012=

USA.gov is the U.S. government's official web portal to all federal, state and local government web resources and services.